TAP832 LPPT-LIRF

Flight info

Callsign TAP832
Flight time 2h 31m
Altitude 30000
Route ORVED DCT UREDI N870 PONEN DCT SEROX DCT VILAR DCT KARES DCT BISES DCT BCN DCT DIPES N725 TOSNU DCT LAPIT DCT OSPOK DCT NOLVI DCT ORKUM DCT ELSAG DCT ALG DCT ROMPO DCT RUXOP DCT BATOX DCT TINTO L5 VALMA
Aircraft A20N/M-SDE2E3FGHIRWXY/LB1

Departure

Time 2026-05-01 07:44
Airport Lisbon Humberto Delgado Airport (LPPT)

Arrival

Time 2026-05-01 10:16
Airport Rome–Fiumicino Leonardo da Vinci International Airport (LIRF)
Time Latitude Longitude Altitude Speed Heading
2026-05-01 07:23 38.77207 -9.13141 351 ft 0 kts 78°
2026-05-01 07:35 38.77204 -9.13158 361 ft 3 kts 78°
2026-05-01 07:35 38.77201 -9.13180 358 ft 3 kts 83°
2026-05-01 07:35 38.77201 -9.13204 357 ft 3 kts 115°
2026-05-01 07:35 38.77212 -9.13223 361 ft 3 kts 151°
2026-05-01 07:36 38.77229 -9.13233 356 ft 2 kts 168°
2026-05-01 07:36 38.77237 -9.13235 359 ft 1 kts 168°
2026-05-01 07:39 38.77220 -9.13230 358 ft 7 kts 168°
2026-05-01 07:39 38.77146 -9.13211 351 ft 14 kts 168°
2026-05-01 07:39 38.76926 -9.13151 357 ft 18 kts 168°
2026-05-01 07:40 38.76830 -9.13126 353 ft 11 kts 171°
2026-05-01 07:40 38.76777 -9.13183 355 ft 10 kts 252°
2026-05-01 07:40 38.76763 -9.13276 354 ft 12 kts 258°
2026-05-01 07:40 38.76725 -9.13396 353 ft 16 kts 226°
2026-05-01 07:41 38.76653 -9.13503 354 ft 17 kts 254°
2026-05-01 07:41 38.76626 -9.13658 356 ft 19 kts 258°
2026-05-01 07:41 38.76567 -9.14015 356 ft 14 kts 258°
2026-05-01 07:42 38.76564 -9.14145 353 ft 16 kts 287°
2026-05-01 07:42 38.76610 -9.14286 354 ft 18 kts 293°
2026-05-01 07:42 38.76636 -9.14349 355 ft 1 kts 310°
2026-05-01 07:42 38.76654 -9.14367 353 ft 5 kts 336°
2026-05-01 07:43 38.76699 -9.14358 359 ft 9 kts 13°
2026-05-01 07:43 38.76711 -9.14353 358 ft 0 kts 18°
2026-05-01 07:43 38.77498 -9.13936 359 ft 121 kts 23°
2026-05-01 07:44 38.79506 -9.12862 727 ft 170 kts 23°
2026-05-01 07:44 38.81710 -9.11621 1893 ft 175 kts 25°
2026-05-01 07:45 38.82814 -9.10875 2374 ft 185 kts 30°
2026-05-01 07:45 38.83981 -9.09950 2688 ft 207 kts 32°
2026-05-01 07:45 38.85276 -9.08894 3057 ft 232 kts 32°
2026-05-01 07:45 38.86717 -9.07741 3585 ft 255 kts 31°
2026-05-01 07:46 38.88244 -9.06540 4342 ft 267 kts 33°
2026-05-01 07:46 38.89662 -9.04925 5326 ft 272 kts 52°
2026-05-01 07:46 38.91441 -9.00560 7180 ft 282 kts 65°
2026-05-01 07:47 38.92281 -8.98286 8081 ft 287 kts 65°
2026-05-01 07:47 38.93140 -8.95977 8982 ft 292 kts 65°
2026-05-01 07:47 38.94038 -8.93568 9900 ft 298 kts 65°
2026-05-01 07:47 38.94945 -8.91135 10617 ft 309 kts 65°
2026-05-01 07:48 38.96945 -8.85769 11285 ft 353 kts 65°
2026-05-01 07:48 38.98004 -8.82928 11997 ft 360 kts 65°
2026-05-01 07:48 38.99108 -8.79963 12802 ft 365 kts 65°
2026-05-01 07:49 39.00211 -8.76998 13581 ft 371 kts 66°
2026-05-01 07:49 39.02466 -8.70920 15009 ft 380 kts 65°
2026-05-01 07:49 39.03610 -8.67829 15696 ft 385 kts 65°
2026-05-01 07:50 39.04754 -8.64736 16369 ft 390 kts 65°
2026-05-01 07:50 39.07103 -8.58376 17696 ft 398 kts 65°
2026-05-01 07:50 39.08291 -8.55155 18351 ft 403 kts 65°
2026-05-01 07:51 39.09507 -8.51854 18952 ft 407 kts 65°
2026-05-01 07:51 39.10727 -8.48537 19539 ft 411 kts 65°
2026-05-01 07:51 39.11954 -8.45199 20083 ft 415 kts 65°
2026-05-01 07:52 39.14445 -8.38408 21211 ft 423 kts 65°
2026-05-01 07:52 39.15709 -8.34960 21759 ft 427 kts 65°
2026-05-01 07:52 39.16985 -8.31471 22305 ft 431 kts 64°
2026-05-01 07:53 39.19545 -8.24460 23377 ft 439 kts 64°
2026-05-01 07:53 39.20850 -8.20878 23878 ft 443 kts 64°
2026-05-01 07:53 39.22165 -8.17268 24347 ft 446 kts 64°
2026-05-01 07:53 39.23486 -8.13634 24805 ft 449 kts 64°
2026-05-01 07:54 39.26154 -8.06283 25697 ft 455 kts 64°
2026-05-01 07:55 39.29796 -7.94839 26960 ft 464 kts 69°
2026-05-01 07:55 39.32069 -7.86989 27763 ft 469 kts 69°
2026-05-01 07:56 39.35516 -7.75031 28889 ft 477 kts 70°
2026-05-01 07:56 39.37820 -7.67003 29594 ft 481 kts 70°
2026-05-01 07:57 39.39160 -7.63026 29919 ft 484 kts 63°
2026-05-01 07:57 39.42188 -7.55221 30166 ft 486 kts 63°
2026-05-01 07:58 39.45197 -7.47401 30166 ft 485 kts 63°
2026-05-01 07:59 39.51160 -7.31839 30160 ft 483 kts 63°
2026-05-01 08:00 39.60072 -7.08433 30155 ft 482 kts 63°
2026-05-01 08:01 39.65975 -6.92829 30155 ft 481 kts 64°
2026-05-01 08:02 39.70365 -6.81172 30161 ft 480 kts 64°
2026-05-01 08:03 39.74759 -6.69459 30172 ft 480 kts 64°
2026-05-01 08:03 39.78645 -6.59059 30170 ft 480 kts 64°
2026-05-01 08:04 39.84454 -6.43448 30172 ft 479 kts 64°
2026-05-01 08:05 39.88523 -6.31645 30148 ft 478 kts 66°
2026-05-01 08:06 39.92502 -6.19745 30155 ft 477 kts 66°
2026-05-01 08:07 39.97762 -6.03865 30162 ft 477 kts 66°
2026-05-01 08:08 40.01692 -5.91934 30153 ft 477 kts 67°
2026-05-01 08:09 40.06906 -5.76027 30167 ft 476 kts 67°
2026-05-01 08:09 40.09483 -5.68129 30160 ft 475 kts 67°
2026-05-01 08:10 40.14661 -5.52199 30163 ft 475 kts 67°
2026-05-01 08:11 40.19761 -5.36414 30168 ft 474 kts 67°
2026-05-01 08:12 40.23590 -5.24505 30166 ft 473 kts 67°
2026-05-01 08:13 40.27401 -5.12598 30153 ft 473 kts 67°
2026-05-01 08:13 40.31196 -5.00690 30152 ft 473 kts 67°
2026-05-01 08:14 40.33712 -4.92769 30175 ft 473 kts 67°
2026-05-01 08:14 40.36222 -4.84843 30162 ft 473 kts 66°
2026-05-01 08:15 40.39993 -4.72892 30156 ft 472 kts 66°
2026-05-01 08:16 40.42500 -4.64922 30163 ft 473 kts 66°
2026-05-01 08:16 40.44999 -4.56941 30172 ft 472 kts 66°
2026-05-01 08:17 40.47495 -4.48953 30156 ft 472 kts 66°
2026-05-01 08:17 40.49983 -4.40968 30155 ft 472 kts 66°
2026-05-01 08:18 40.52466 -4.32974 30161 ft 472 kts 66°
2026-05-01 08:19 40.57405 -4.17006 30165 ft 471 kts 67°
2026-05-01 08:19 40.59848 -4.09075 30169 ft 470 kts 67°
2026-05-01 08:20 40.62297 -4.01096 30173 ft 470 kts 67°
2026-05-01 08:20 40.64739 -3.93115 30178 ft 469 kts 68°
2026-05-01 08:21 40.67175 -3.85132 30184 ft 469 kts 68°
2026-05-01 08:21 40.69600 -3.77168 30186 ft 468 kts 68°
2026-05-01 08:22 40.72001 -3.69256 30183 ft 468 kts 68°
2026-05-01 08:22 40.74418 -3.61268 30178 ft 468 kts 69°
2026-05-01 08:23 40.76821 -3.53301 30181 ft 468 kts 69°
2026-05-01 08:23 40.79225 -3.45305 30178 ft 468 kts 69°
2026-05-01 08:24 40.81621 -3.37315 30174 ft 468 kts 69°
2026-05-01 08:24 40.84010 -3.29320 30176 ft 468 kts 69°
2026-05-01 08:25 40.86075 -3.21238 30178 ft 467 kts 77°
2026-05-01 08:25 40.87706 -3.12929 30175 ft 467 kts 77°
2026-05-01 08:26 40.89350 -3.04622 30176 ft 467 kts 77°
2026-05-01 08:26 40.90984 -2.96306 30179 ft 467 kts 77°
2026-05-01 08:27 40.92608 -2.87991 30179 ft 467 kts 77°
2026-05-01 08:27 40.94217 -2.79714 30191 ft 468 kts 77°
2026-05-01 08:28 40.95833 -2.71368 30189 ft 468 kts 77°
2026-05-01 08:28 40.97444 -2.63017 30174 ft 468 kts 77°
2026-05-01 08:29 40.99048 -2.54659 30197 ft 468 kts 77°
2026-05-01 08:29 41.00645 -2.46288 30185 ft 469 kts 77°
2026-05-01 08:30 41.02238 -2.37899 30193 ft 469 kts 78°
2026-05-01 08:30 41.03818 -2.29564 30184 ft 470 kts 78°
2026-05-01 08:31 41.05409 -2.21150 30185 ft 470 kts 78°
2026-05-01 08:31 41.06995 -2.12724 30189 ft 471 kts 78°
2026-05-01 08:32 41.08577 -2.04274 30192 ft 472 kts 78°
2026-05-01 08:32 41.10150 -1.95820 30189 ft 473 kts 78°
2026-05-01 08:33 41.11709 -1.87402 30182 ft 473 kts 78°
2026-05-01 08:33 41.13275 -1.78913 30194 ft 474 kts 78°
2026-05-01 08:34 41.14837 -1.70403 30199 ft 475 kts 78°
2026-05-01 08:34 41.16393 -1.61891 30199 ft 475 kts 78°
2026-05-01 08:35 41.17945 -1.53361 30197 ft 476 kts 78°
2026-05-01 08:35 41.19492 -1.44815 30197 ft 476 kts 78°
2026-05-01 08:36 41.21035 -1.36261 30198 ft 476 kts 78°
2026-05-01 08:36 41.22564 -1.27753 30196 ft 477 kts 78°
2026-05-01 08:37 41.24100 -1.19165 30193 ft 477 kts 78°
2026-05-01 08:37 41.25628 -1.10585 30200 ft 477 kts 78°
2026-05-01 08:38 41.27152 -1.01982 30200 ft 478 kts 78°
2026-05-01 08:38 41.28672 -0.93367 30205 ft 478 kts 78°
2026-05-01 08:39 41.30185 -0.84743 30208 ft 479 kts 79°
2026-05-01 08:39 41.31696 -0.76101 30209 ft 479 kts 79°
2026-05-01 08:40 41.33934 -0.63215 30207 ft 479 kts 79°
2026-05-01 08:40 41.35220 -0.54539 30204 ft 477 kts 86°
2026-05-01 08:41 41.35325 -0.45750 30208 ft 474 kts 93°
2026-05-01 08:41 41.35262 -0.36970 30206 ft 474 kts 93°
2026-05-01 08:42 41.35198 -0.28195 30210 ft 474 kts 93°
2026-05-01 08:42 41.35121 -0.19417 30209 ft 474 kts 93°
2026-05-01 08:43 41.35038 -0.10654 30212 ft 473 kts 93°
2026-05-01 08:43 41.34948 -0.01937 30213 ft 473 kts 93°
2026-05-01 08:44 41.34852 0.06819 30217 ft 473 kts 93°
2026-05-01 08:44 41.34765 0.14166 30219 ft 473 kts 93°
2026-05-01 08:45 41.34639 0.24346 30222 ft 473 kts 94°
2026-05-01 08:45 41.34522 0.33127 30221 ft 474 kts 94°
2026-05-01 08:46 41.34398 0.41879 30220 ft 473 kts 94°
2026-05-01 08:46 41.34267 0.50658 30226 ft 473 kts 94°
2026-05-01 08:47 41.34131 0.59416 30222 ft 473 kts 94°
2026-05-01 08:47 41.33988 0.68117 30224 ft 473 kts 94°
2026-05-01 08:48 41.33838 0.76878 30225 ft 473 kts 94°
2026-05-01 08:48 41.33681 0.85623 30220 ft 473 kts 94°
2026-05-01 08:49 41.33518 0.94380 30224 ft 473 kts 94°
2026-05-01 08:49 41.33348 1.03133 30218 ft 472 kts 94°
2026-05-01 08:50 41.33202 1.10385 30219 ft 471 kts 94°
2026-05-01 08:50 41.33020 1.19111 30217 ft 472 kts 94°
2026-05-01 08:51 41.32834 1.27829 30215 ft 471 kts 94°
2026-05-01 08:51 41.32639 1.36556 30224 ft 471 kts 94°
2026-05-01 08:52 41.32440 1.45221 30224 ft 472 kts 94°
2026-05-01 08:52 41.32232 1.53937 30221 ft 471 kts 94°
2026-05-01 08:53 41.32018 1.62663 30231 ft 472 kts 94°
2026-05-01 08:53 41.31798 1.71390 30228 ft 472 kts 94°
2026-05-01 08:54 41.31569 1.80117 30233 ft 472 kts 94°
2026-05-01 08:54 41.31334 1.88852 30237 ft 473 kts 94°
2026-05-01 08:55 41.31092 1.97587 30234 ft 472 kts 94°
2026-05-01 08:55 41.30844 2.06287 30245 ft 474 kts 94°
2026-05-01 08:56 41.30041 2.14949 30237 ft 471 kts 105°
2026-05-01 08:56 41.28624 2.23455 30236 ft 470 kts 104°
2026-05-01 08:57 41.27226 2.31938 30233 ft 469 kts 104°
2026-05-01 08:57 41.25828 2.40364 30228 ft 469 kts 104°
2026-05-01 08:58 41.24416 2.48826 30220 ft 469 kts 104°
2026-05-01 08:58 41.22998 2.57283 30219 ft 469 kts 104°
2026-05-01 08:59 41.21575 2.65728 30227 ft 468 kts 104°
2026-05-01 08:59 41.20147 2.74159 30227 ft 468 kts 104°
2026-05-01 09:00 41.18715 2.82577 30224 ft 467 kts 104°
2026-05-01 09:00 41.17278 2.90987 30221 ft 467 kts 104°
2026-05-01 09:01 41.15844 2.99337 30223 ft 467 kts 104°
2026-05-01 09:01 41.14395 3.07737 30222 ft 467 kts 104°
2026-05-01 09:02 41.12939 3.16134 30224 ft 467 kts 104°
2026-05-01 09:02 41.11476 3.24540 30227 ft 467 kts 104°
2026-05-01 09:03 41.10008 3.32931 30222 ft 467 kts 104°
2026-05-01 09:03 41.08532 3.41330 30218 ft 467 kts 104°
2026-05-01 09:04 41.07051 3.49718 30221 ft 468 kts 104°
2026-05-01 09:04 41.05573 3.58061 30224 ft 468 kts 104°
2026-05-01 09:05 41.04074 3.66473 30221 ft 469 kts 104°
2026-05-01 09:05 41.02569 3.74880 30221 ft 469 kts 104°
2026-05-01 09:06 41.01056 3.83294 30217 ft 469 kts 104°
2026-05-01 09:06 40.99546 3.91643 30217 ft 470 kts 104°
2026-05-01 09:07 40.98018 4.00054 30214 ft 470 kts 104°
2026-05-01 09:07 40.96481 4.08475 30214 ft 470 kts 104°
2026-05-01 09:08 40.94940 4.16881 30211 ft 470 kts 104°
2026-05-01 09:08 40.93390 4.25303 30215 ft 471 kts 104°
2026-05-01 09:09 40.91844 4.33663 30211 ft 471 kts 104°
2026-05-01 09:09 40.90284 4.42062 30211 ft 471 kts 104°
2026-05-01 09:10 40.88717 4.50471 30213 ft 471 kts 104°
2026-05-01 09:10 40.87148 4.58886 30210 ft 471 kts 104°
2026-05-01 09:11 40.85646 4.67318 30214 ft 472 kts 99°
2026-05-01 09:11 40.84840 4.75920 30211 ft 472 kts 97°
2026-05-01 09:12 40.84051 4.84484 30208 ft 472 kts 97°
2026-05-01 09:12 40.83247 4.93094 30221 ft 472 kts 97°
2026-05-01 09:13 40.82436 5.01705 30212 ft 473 kts 97°
2026-05-01 09:13 40.81616 5.10347 30212 ft 474 kts 96°
2026-05-01 09:14 40.80790 5.18973 30211 ft 474 kts 96°
2026-05-01 09:14 40.79957 5.27617 30213 ft 475 kts 96°
2026-05-01 09:15 40.79121 5.36217 30215 ft 476 kts 96°
2026-05-01 09:15 40.78272 5.44884 30219 ft 476 kts 96°
2026-05-01 09:16 40.77415 5.53565 30222 ft 477 kts 96°
2026-05-01 09:17 40.76115 5.66598 30219 ft 478 kts 96°
2026-05-01 09:17 40.74804 5.79594 30223 ft 479 kts 96°
2026-05-01 09:18 40.73468 5.92687 30226 ft 480 kts 96°
2026-05-01 09:19 40.72114 6.05788 30229 ft 481 kts 96°
2026-05-01 09:20 40.70742 6.18913 30225 ft 482 kts 96°
2026-05-01 09:21 40.68890 6.36389 30238 ft 483 kts 96°
2026-05-01 09:21 40.67484 6.49496 30236 ft 484 kts 96°
2026-05-01 09:22 40.65570 6.67107 30235 ft 485 kts 96°
2026-05-01 09:23 40.64114 6.80338 30240 ft 486 kts 96°
2026-05-01 09:24 40.62642 6.93568 30229 ft 487 kts 97°
2026-05-01 09:25 40.60661 7.11148 30240 ft 487 kts 97°
2026-05-01 09:26 40.59150 7.24398 30239 ft 487 kts 97°
2026-05-01 09:26 40.57627 7.37617 30237 ft 487 kts 97°
2026-05-01 09:27 40.56642 7.50818 30235 ft 484 kts 84°
2026-05-01 09:28 40.57373 7.59588 30236 ft 482 kts 81°
2026-05-01 09:28 40.58134 7.68348 30233 ft 482 kts 81°
2026-05-01 09:29 40.59255 7.81493 30232 ft 482 kts 81°
2026-05-01 09:30 40.60357 7.94593 30229 ft 482 kts 81°
2026-05-01 09:30 40.61450 8.07741 30220 ft 482 kts 81°
2026-05-01 09:31 40.62174 8.16517 30208 ft 482 kts 81°
2026-05-01 09:31 40.63267 8.25182 30215 ft 477 kts 70°
2026-05-01 09:32 40.64355 8.29289 30216 ft 473 kts 63°
2026-05-01 09:32 40.68162 8.41277 30215 ft 473 kts 63°
2026-05-01 09:33 40.70680 8.49288 30217 ft 472 kts 63°
2026-05-01 09:34 40.74423 8.61229 30220 ft 471 kts 63°
2026-05-01 09:34 40.78161 8.73208 30240 ft 469 kts 62°
2026-05-01 09:35 40.81875 8.85157 30255 ft 468 kts 62°
2026-05-01 09:36 40.84337 8.93109 30250 ft 468 kts 62°
2026-05-01 09:36 40.86792 9.01059 30252 ft 467 kts 62°
2026-05-01 09:37 40.89240 9.09015 30261 ft 466 kts 62°
2026-05-01 09:37 40.92876 9.20872 30276 ft 466 kts 62°
2026-05-01 09:38 40.96516 9.32792 30288 ft 465 kts 62°
2026-05-01 09:39 41.00127 9.44679 30294 ft 465 kts 62°
2026-05-01 09:39 41.02122 9.51268 30291 ft 462 kts 62°
2026-05-01 09:40 41.06107 9.64471 30287 ft 464 kts 62°
2026-05-01 09:41 41.08106 9.71123 30288 ft 464 kts 62°
2026-05-01 09:41 41.11656 9.83012 30281 ft 464 kts 63°
2026-05-01 09:42 41.14003 9.90998 30280 ft 464 kts 63°
2026-05-01 09:43 41.18697 10.06956 30283 ft 463 kts 62°
2026-05-01 09:43 41.21061 10.14910 30282 ft 463 kts 62°
2026-05-01 09:44 41.24596 10.26858 30280 ft 463 kts 62°
2026-05-01 09:45 41.26928 10.34776 30279 ft 463 kts 62°
2026-05-01 09:45 41.30441 10.46751 30277 ft 463 kts 62°
2026-05-01 09:46 41.32773 10.54731 30277 ft 463 kts 62°
2026-05-01 09:46 41.35102 10.62723 30279 ft 463 kts 62°
2026-05-01 09:47 41.37405 10.70656 29850 ft 461 kts 62°
2026-05-01 09:47 41.38562 10.74648 29058 ft 462 kts 62°
2026-05-01 09:47 41.39724 10.78658 28061 ft 465 kts 62°
2026-05-01 09:48 41.40888 10.82682 27224 ft 465 kts 62°
2026-05-01 09:48 41.42037 10.86674 26651 ft 457 kts 62°
2026-05-01 09:48 41.43156 10.90581 26339 ft 444 kts 62°
2026-05-01 09:48 41.44243 10.94382 25779 ft 437 kts 62°
2026-05-01 09:49 41.45339 10.98183 24839 ft 442 kts 63°
2026-05-01 09:49 41.46442 11.02012 24135 ft 440 kts 63°
2026-05-01 09:49 41.47532 11.05814 23498 ft 435 kts 63°
2026-05-01 09:49 41.48597 11.09550 22844 ft 429 kts 63°
2026-05-01 09:50 41.49642 11.13257 22218 ft 423 kts 63°
2026-05-01 09:50 41.50653 11.16872 22001 ft 407 kts 63°
2026-05-01 09:50 41.51610 11.20301 21842 ft 392 kts 63°
2026-05-01 09:50 41.52542 11.23643 21685 ft 377 kts 63°
2026-05-01 09:51 41.53441 11.26859 21559 ft 362 kts 62°
2026-05-01 09:51 41.54304 11.29947 21397 ft 346 kts 62°
2026-05-01 09:51 41.55120 11.32876 21237 ft 327 kts 62°
2026-05-01 09:51 41.55895 11.35658 20933 ft 314 kts 62°
2026-05-01 09:52 41.56658 11.38372 20414 ft 310 kts 61°
2026-05-01 09:52 41.57410 11.41045 19894 ft 305 kts 61°
2026-05-01 09:52 41.58149 11.43686 19393 ft 301 kts 62°
2026-05-01 09:52 41.58869 11.46282 18900 ft 296 kts 62°
2026-05-01 09:53 41.59580 11.48853 18402 ft 293 kts 62°
2026-05-01 09:53 41.60286 11.51400 18005 ft 291 kts 62°
2026-05-01 09:53 41.60986 11.53925 17607 ft 289 kts 62°
2026-05-01 09:53 41.61682 11.56432 17194 ft 287 kts 62°
2026-05-01 09:54 41.62242 11.59005 16806 ft 293 kts 75°
2026-05-01 09:54 41.62211 11.61763 16413 ft 304 kts 93°
2026-05-01 09:54 41.61537 11.64477 16036 ft 313 kts 111°
2026-05-01 09:54 41.60240 11.66861 15648 ft 321 kts 130°
2026-05-01 09:55 41.58451 11.68606 15274 ft 326 kts 148°
2026-05-01 09:55 41.56471 11.70077 14911 ft 324 kts 146°
2026-05-01 09:55 41.54566 11.71646 14561 ft 320 kts 142°
2026-05-01 09:55 41.52741 11.73330 14226 ft 317 kts 139°
2026-05-01 09:56 41.51008 11.75110 13868 ft 313 kts 136°
2026-05-01 09:56 41.49357 11.76985 13496 ft 310 kts 133°
2026-05-01 09:56 41.47794 11.78934 13049 ft 305 kts 130°
2026-05-01 09:56 41.46322 11.80948 12513 ft 301 kts 128°
2026-05-01 09:57 41.44939 11.83017 11991 ft 296 kts 125°
2026-05-01 09:57 41.43648 11.85130 11474 ft 292 kts 122°
2026-05-01 09:57 41.42438 11.87293 10964 ft 289 kts 120°
2026-05-01 09:57 41.41315 11.89491 10453 ft 285 kts 117°
2026-05-01 09:58 41.40287 11.91694 9953 ft 281 kts 115°
2026-05-01 09:58 41.39329 11.93953 9425 ft 278 kts 113°
2026-05-01 09:58 41.38450 11.96226 9066 ft 275 kts 114°
2026-05-01 09:58 41.37212 11.98171 8753 ft 279 kts 141°
2026-05-01 09:59 41.35443 11.99190 8455 ft 279 kts 170°
2026-05-01 09:59 41.33531 11.99053 8140 ft 277 kts 199°
2026-05-01 09:59 41.31884 11.97809 7841 ft 271 kts 227°
2026-05-01 09:59 41.30884 11.95772 7549 ft 260 kts 256°
2026-05-01 10:00 41.30746 11.93424 7250 ft 253 kts 285°
2026-05-01 10:00 41.31471 11.91373 6960 ft 243 kts 315°
2026-05-01 10:00 41.32850 11.90143 6673 ft 240 kts 345°
2026-05-01 10:00 41.34466 11.90040 6371 ft 238 kts 12°
2026-05-01 10:01 41.36073 11.90564 6007 ft 238 kts 14°
2026-05-01 10:01 41.37677 11.91119 5640 ft 238 kts 14°
2026-05-01 10:01 41.39272 11.91704 5306 ft 237 kts 20°
2026-05-01 10:01 41.40601 11.92982 4941 ft 242 kts 50°
2026-05-01 10:02 41.41260 11.95045 4550 ft 247 kts 81°
2026-05-01 10:02 41.41037 11.97319 4161 ft 253 kts 113°
2026-05-01 10:02 41.39981 11.99155 3833 ft 252 kts 142°
2026-05-01 10:02 41.38559 12.00517 3522 ft 252 kts 143°
2026-05-01 10:03 41.37282 12.02102 3221 ft 250 kts 130°
2026-05-01 10:03 41.36307 12.04006 2901 ft 249 kts 117°
2026-05-01 10:03 41.35603 12.06105 2567 ft 248 kts 109°
2026-05-01 10:03 41.35099 12.08262 2474 ft 238 kts 103°
2026-05-01 10:04 41.34707 12.10464 2484 ft 246 kts 100°
2026-05-01 10:04 41.34387 12.12691 2493 ft 245 kts 98°
2026-05-01 10:04 41.34128 12.14939 2494 ft 245 kts 96°
2026-05-01 10:04 41.33926 12.17196 2483 ft 246 kts 94°
2026-05-01 10:05 41.33784 12.19460 2479 ft 245 kts 92°
2026-05-01 10:05 41.33714 12.21690 2482 ft 243 kts 85°
2026-05-01 10:05 41.34197 12.23803 2476 ft 241 kts 54°
2026-05-01 10:05 41.35398 12.25265 2478 ft 233 kts 25°
2026-05-01 10:06 41.36924 12.25929 2482 ft 230 kts
2026-05-01 10:06 41.38496 12.26117 2474 ft 221 kts 359°
2026-05-01 10:06 41.39984 12.26091 2471 ft 207 kts 356°
2026-05-01 10:06 41.41424 12.26000 2474 ft 210 kts 356°
2026-05-01 10:07 41.42864 12.26146 2468 ft 203 kts
2026-05-01 10:07 41.44193 12.26535 2465 ft 188 kts 10°
2026-05-01 10:07 41.45428 12.26894 2488 ft 180 kts 10°
2026-05-01 10:07 41.46671 12.27248 2470 ft 181 kts 10°
2026-05-01 10:08 41.49130 12.27952 2494 ft 180 kts 11°
2026-05-01 10:08 41.50341 12.28300 2464 ft 179 kts 11°
2026-05-01 10:08 41.51602 12.28662 2463 ft 189 kts 11°
2026-05-01 10:09 41.52884 12.29033 2459 ft 189 kts 11°
2026-05-01 10:09 41.54174 12.29406 2462 ft 190 kts 11°
2026-05-01 10:09 41.55463 12.29780 2464 ft 189 kts 11°
2026-05-01 10:09 41.56750 12.30153 2460 ft 189 kts 11°
2026-05-01 10:10 41.58035 12.30526 2459 ft 189 kts 11°
2026-05-01 10:10 41.59320 12.30898 2459 ft 189 kts 11°
2026-05-01 10:10 41.61885 12.31642 2457 ft 188 kts 12°
2026-05-01 10:11 41.63161 12.32012 2454 ft 188 kts 12°
2026-05-01 10:11 41.64439 12.32382 2456 ft 188 kts 12°
2026-05-01 10:11 41.65705 12.32750 2447 ft 178 kts 12°
2026-05-01 10:11 41.66846 12.33080 2451 ft 158 kts 12°
2026-05-01 10:12 41.67878 12.33104 2450 ft 141 kts 351°
2026-05-01 10:12 41.68480 12.32904 2465 ft 130 kts 345°
2026-05-01 10:12 41.70631 12.31987 2195 ft 137 kts 345°
2026-05-01 10:13 41.71527 12.31611 2079 ft 142 kts 343°
2026-05-01 10:13 41.72494 12.31207 1837 ft 143 kts 346°
2026-05-01 10:13 41.73408 12.30825 1651 ft 131 kts 345°
2026-05-01 10:14 41.75247 12.30059 1295 ft 137 kts 345°
2026-05-01 10:14 41.76135 12.29689 1105 ft 134 kts 345°
2026-05-01 10:14 41.77030 12.29310 923 ft 135 kts 345°
2026-05-01 10:14 41.77918 12.28941 742 ft 134 kts 345°
2026-05-01 10:15 41.78789 12.28568 593 ft 129 kts 343°
2026-05-01 10:15 41.79677 12.28206 397 ft 136 kts 343°
2026-05-01 10:15 41.80580 12.27815 228 ft 137 kts 344°
2026-05-01 10:15 41.81500 12.27436 47 ft 139 kts 345°
2026-05-01 10:16 41.82339 12.27093 13 ft 98 kts 342°
2026-05-01 10:16 41.82698 12.26939 24 ft 11 kts 346°
2026-05-01 10:16 41.82920 12.26845 22 ft 36 kts 336°
2026-05-01 10:17 41.83081 12.26719 19 ft 4 kts 322°
2026-05-01 10:17 41.83175 12.26600 19 ft 12 kts 314°
2026-05-01 10:17 41.83233 12.26508 21 ft 14 kts 300°
2026-05-01 10:18 41.83230 12.26438 20 ft 6 kts 233°
2026-05-01 10:18 41.83218 12.26422 20 ft 0 kts 218°
2026-05-01 10:19 41.83215 12.26419 20 ft 2 kts 218°
2026-05-01 10:19 41.83164 12.26393 20 ft 15 kts 193°
2026-05-01 10:20 41.82885 12.26406 16 ft 16 kts 162°
2026-05-01 10:20 41.82775 12.26452 20 ft 18 kts 162°
2026-05-01 10:20 41.82651 12.26506 19 ft 20 kts 161°
2026-05-01 10:20 41.82515 12.26562 19 ft 19 kts 163°
2026-05-01 10:21 41.82396 12.26611 19 ft 19 kts 163°
2026-05-01 10:21 41.82150 12.26716 17 ft 20 kts 162°
2026-05-01 10:21 41.82030 12.26765 15 ft 19 kts 163°
2026-05-01 10:22 41.81806 12.26859 17 ft 19 kts 163°
2026-05-01 10:22 41.81562 12.26959 20 ft 18 kts 163°
2026-05-01 10:23 41.81428 12.27017 19 ft 15 kts 161°
2026-05-01 10:23 41.81251 12.27088 17 ft 18 kts 163°
2026-05-01 10:23 41.81115 12.27145 15 ft 22 kts 162°
2026-05-01 10:24 41.80844 12.27209 11 ft 19 kts 193°
2026-05-01 10:24 41.80750 12.27048 11 ft 15 kts 250°
2026-05-01 10:25 41.80644 12.26660 15 ft 26 kts 251°
2026-05-01 10:25 41.80553 12.26330 17 ft 18 kts 250°
2026-05-01 10:26 41.80494 12.26197 14 ft 0 kts 210°
2026-05-01 10:26 41.80482 12.26188 15 ft 5 kts 210°
2026-05-01 10:26 41.80327 12.26102 14 ft 17 kts 199°
2026-05-01 10:27 41.80142 12.25989 16 ft 22 kts 206°
2026-05-01 10:27 41.79943 12.25865 18 ft 11 kts 212°
2026-05-01 10:28 41.79959 12.25724 19 ft 15 kts 295°
2026-05-01 10:28 41.79964 12.25554 17 ft 12 kts 206°
2026-05-01 10:28 41.79898 12.25514 17 ft 8 kts 204°
2026-05-01 10:29 41.79768 12.25435 17 ft 9 kts 204°
2026-05-01 10:29 41.79736 12.25437 17 ft 4 kts 154°
2026-05-01 10:30 41.79717 12.25482 19 ft 0 kts 119°